Hourly Data Report for September 03, 2017

All times are specified in Local Standard Time (LST). Add 1 hour to adjust for Daylight Saving Time where and when it is observed.

COMOX A
BRITISH COLUMBIA

49°43'00.000" N
124°54'00.000" W
25.60 m
1021830
71893
YQQ

Download Data

Hourly Data (September 2017)
Hourly Data Report for September 3, 2017
Temp Definition
°C
Dew Point Temp Definition
°C
Rel Hum Definition
%
Wind Dir Definition
10's deg

Wind Spd Definition
km/h
Visibility Definition
km
Stn Press Definition
kPa
Hmdx Definition


Wind Chill Definition


Weather Definition


TIME
00:00 18.7 14.2 75   0 32.2 101.27     Clear
01:00 18.8 14.4 76   0 32.2 101.29     Clear
02:00 17.7 14.2 80   0 32.2 101.29     Clear
03:00 16.9 14.2 84 32 6 32.2 101.31     Clear
04:00 18.0 15.1 83 28 4 32.2 101.32     Clear
05:00 16.5 14.4 87 31 7 32.2 101.33     Clear
06:00 16.5 14.4 87 29 7 32.2 101.38     Clear
07:00 18.4 15.5 83 31 6 32.2 101.42     Clear
08:00 20.5 16.2 76 35 6 32.2 101.45 25   Clear
09:00 21.1 16.2 74 35 19 32.2 101.47 26   Clear
10:00 23.1 16.5 66 34 17 32.2 101.50 28   Clear
11:00 24.6 16.7 61 34 17 32.2 101.50 30   Clear
12:00 25.9 16.4 56 36 17 32.2 101.49 31   Clear
13:00 27.5 16.5 51 36 13 32.2 101.48 32   Clear
14:00 29.1 15.7 44 36 11 32.2 101.45 34   Clear
15:00 30.1 13.9 37 36 11 32.2 101.43 33   Clear
16:00 30.7 11.8 31 35 13 32.2 101.40 33   Mainly Clear
17:00 30.4 13.8 36 34 13 32.2 101.38 34   Clear
18:00 30.3 12.9 34 32 11 32.2 101.37 33   Clear
19:00 28.4 12.6 38 32 9 32.2 101.39 31   Mainly Clear
20:00 26.2 13.1 44 31 7 32.2 101.44 29   Clear
21:00 22.6 14.5 60 35 11 32.2 101.47 26   Clear
22:00 23.2 13.8 55 34 19 32.2 101.49 26   Clear
23:00 23.3 13.3 53 34 19 32.2 101.51 26   Clear

Notes on Data Quality.

Legend

  • E = Estimated
  • M = Missing
  • NA = Not Available
  • ‡ = Partner data that is not subject to review by the National Climate Archives
Date modified: